| time (UTC) | temp F | wind direction | speed knots | gust knots | rain 1hr in | rain 24hr in | rain mn in | humidity % | barometer mb |
| 20260506005535 | 67 | 34 | 0.9 | 0.9 | 0.00 | 0.00 | 0.00 | 49 | 1013.9 |
| 20260506005031 | 67 | 66 | 0.9 | 1.7 | 0.00 | 0.00 | 0.00 | 48 | 1013.9 |
| 20260506004529 | 67 | 53 | 0.9 | 0.9 | 0.00 | 0.00 | 0.00 | 49 | 1013.9 |
| 20260506004025 | 68 | 234 | 0.9 | 1.7 | 0.00 | 0.00 | 0.00 | 49 | 1013.8 |
| 20260506003522 | 68 | 270 | 0.9 | 0.9 | 0.00 | 0.00 | 0.00 | 49 | 1013.6 |
| 20260506003018 | 67 | 24 | 0.0 | 0.0 | 0.00 | 0.00 | 0.00 | 48 | 1013.7 |
| 20260506002514 | 68 | 229 | 2.6 | 3.5 | 0.00 | 0.00 | 0.00 | 47 | 1013.8 |
| 20260506002010 | 69 | 288 | 0.9 | 0.9 | 0.00 | 0.00 | 0.00 | 45 | 1014.0 |
| 20260506001506 | 69 | 307 | 2.6 | 3.5 | 0.00 | 0.00 | 0.00 | 45 | 1013.6 |
| 20260506001004 | 69 | 45 | 0.9 | 0.9 | 0.00 | 0.00 | 0.00 | 46 | 1013.6 |
| 20260506000501 | 69 | 232 | 0.0 | 0.0 | 0.00 | 0.00 | 0.00 | 46 | 1013.7 |
| 20260505235958 | 70 | 257 | 3.5 | 4.3 | 0.00 | 0.00 | 0.00 | 45 | 1013.9 |
| 20260505235456 | 69 | 248 | 0.9 | 0.9 | 0.00 | 0.00 | 0.00 | 45 | 1013.8 |
| 20260505234953 | 69 | 35 | 0.0 | 0.0 | 0.00 | 0.00 | 0.00 | 45 | 1013.9 |
| 20260505234450 | 71 | 281 | 0.9 | 1.7 | 0.00 | 0.00 | 0.00 | 46 | 1013.7 |
| 20260505233947 | 69 | 24 | 0.9 | 0.9 | 0.00 | 0.00 | 0.00 | 45 | 1013.8 |
| 20260505233444 | 70 | 292 | 6.1 | 6.1 | 0.00 | 0.00 | 0.00 | 44 | 1013.9 |
| 20260505232942 | 69 | 143 | 0.0 | 0.9 | 0.00 | 0.00 | 0.00 | 47 | 1013.9 |
| 20260505232440 | 69 | 271 | 2.6 | 4.3 | 0.00 | 0.00 | 0.00 | 48 | 1013.8 |
| 20260505231936 | 69 | 290 | 5.2 | 6.1 | 0.00 | 0.00 | 0.00 | 46 | 1013.9 |
| 20260505231433 | 69 | 259 | 2.6 | 4.3 | 0.00 | 0.00 | 0.00 | 45 | 1013.9 |
| 20260505230932 | 70 | 31 | 1.7 | 3.5 | 0.00 | 0.00 | 0.00 | 44 | 1013.7 |
| 20260505230429 | 70 | 263 | 1.7 | 3.5 | 0.00 | 0.00 | 0.00 | 42 | 1014.0 |
| 20260505225925 | 68 | 280 | 3.5 | 4.3 | 0.00 | 0.00 | 0.00 | 47 | 1014.0 |
| 20260505225423 | 67 | 29 | 1.7 | 1.7 | 0.00 | 0.00 | 0.00 | 48 | 1014.0 |
| 20260505224918 | 68 | 255 | 4.3 | 5.2 | 0.00 | 0.00 | 0.00 | 47 | 1013.8 |
| 20260505224416 | 69 | 303 | 1.7 | 1.7 | 0.00 | 0.00 | 0.00 | 45 | 1013.9 |
| 20260505223912 | 69 | 271 | 4.3 | 5.2 | 0.00 | 0.00 | 0.00 | 44 | 1013.8 |
| 20260505223409 | 70 | 261 | 4.3 | 6.1 | 0.00 | 0.00 | 0.00 | 45 | 1014.1 |
| 20260505222905 | 70 | 261 | 2.6 | 3.5 | 0.00 | 0.00 | 0.00 | 45 | 1014.1 |
| 20260505222402 | 69 | 276 | 1.7 | 3.5 | 0.00 | 0.00 | 0.00 | 46 | 1014.0 |
| 20260505221858 | 68 | 257 | 4.3 | 5.2 | 0.00 | 0.00 | 0.00 | 45 | 1014.1 |
| 20260505221355 | 68 | 219 | 4.3 | 5.2 | 0.00 | 0.00 | 0.00 | 45 | 1014.1 |
| 20260505220853 | 70 | 276 | 0.9 | 0.9 | 0.00 | 0.00 | 0.00 | 45 | 1013.9 |
| 20260505220349 | 68 | 294 | 4.3 | 5.2 | 0.00 | 0.00 | 0.00 | 45 | 1013.9 |
| 20260505215847 | 69 | 261 | 2.6 | 3.5 | 0.00 | 0.00 | 0.00 | 45 | 1014.0 |
| 20260505215345 | 71 | 280 | 4.3 | 5.2 | 0.00 | 0.00 | 0.00 | 44 | 1014.3 |
| 20260505214843 | 70 | 5 | 1.7 | 1.7 | 0.00 | 0.00 | 0.00 | 42 | 1014.1 |
| 20260505214340 | 69 | 298 | 1.7 | 1.7 | 0.00 | 0.00 | 0.00 | 43 | 1014.2 |
| 20260505213837 | 69 | 240 | 1.7 | 3.5 | 0.00 | 0.00 | 0.00 | 45 | 1014.1 |
| 20260505213335 | 69 | 253 | 4.3 | 5.2 | 0.00 | 0.00 | 0.00 | 44 | 1014.4 |
| 20260505212831 | 68 | 248 | 4.3 | 5.2 | 0.00 | 0.00 | 0.00 | 45 | 1014.2 |
| 20260505212328 | 68 | 273 | 3.5 | 5.2 | 0.00 | 0.00 | 0.00 | 43 | 1014.2 |
| 20260505211824 | 67 | 265 | 3.5 | 4.3 | 0.00 | 0.00 | 0.00 | 45 | 1014.1 |
| 20260505211322 | 68 | 280 | 5.2 | 7.0 | 0.00 | 0.00 | 0.00 | 44 | 1014.3 |
| 20260505210818 | 69 | 273 | 5.2 | 6.1 | 0.00 | 0.00 | 0.00 | 41 | 1014.1 |
| 20260505210315 | 68 | 289 | 4.3 | 5.2 | 0.00 | 0.00 | 0.00 | 42 | 1014.1 |
| 20260505205812 | 69 | 125 | 0.9 | 0.9 | 0.00 | 0.00 | 0.00 | 42 | 1014.4 |
| 20260505205310 | 68 | 265 | 6.1 | 6.1 | 0.00 | 0.00 | 0.00 | 43 | 1014.4 |
| 20260505204807 | 68 | 279 | 2.6 | 3.5 | 0.00 | 0.00 | 0.00 | 44 | 1014.4 |
| 20260505204305 | 68 | 245 | 2.6 | 4.3 | 0.00 | 0.00 | 0.00 | 43 | 1014.2 |
| 20260505203802 | 67 | 266 | 3.5 | 4.3 | 0.00 | 0.00 | 0.00 | 43 | 1014.4 |
| 20260505203258 | 66 | 279 | 3.5 | 4.3 | 0.00 | 0.00 | 0.00 | 43 | 1014.4 |
| 20260505202754 | 66 | 236 | 2.6 | 3.5 | 0.00 | 0.00 | 0.00 | 44 | 1014.4 |
| 20260505202251 | 67 | 278 | 5.2 | 6.1 | 0.00 | 0.00 | 0.00 | 44 | 1014.3 |
| 20260505201747 | 68 | 249 | 5.2 | 6.1 | 0.00 | 0.00 | 0.00 | 43 | 1014.4 |
| 20260505201245 | 68 | 226 | 1.7 | 3.5 | 0.00 | 0.00 | 0.00 | 44 | 1014.4 |
| 20260505200743 | 68 | 225 | 2.6 | 3.5 | 0.00 | 0.00 | 0.00 | 45 | 1014.3 |
| 20260505200240 | 67 | 253 | 1.7 | 3.5 | 0.00 | 0.00 | 0.00 | 48 | 1014.4 |
| 20260505195729 | 68 | 257 | 0.9 | 3.5 | 0.00 | 0.00 | 0.00 | 48 | 1014.5 |
| 20260505195227 | 65 | 321 | 1.7 | 1.7 | 0.00 | 0.00 | 0.00 | 50 | 1014.2 |
| 20260505194724 | 65 | 282 | 5.2 | 7.0 | 0.00 | 0.00 | 0.00 | 49 | 1014.5 |
| 20260505194221 | 67 | 283 | 2.6 | 4.3 | 0.00 | 0.00 | 0.00 | 48 | 1014.8 |
| 20260505193717 | 65 | 227 | 2.6 | 3.5 | 0.00 | 0.00 | 0.00 | 48 | 1014.6 |
| 20260505193214 | 65 | 305 | 5.2 | 6.1 | 0.00 | 0.00 | 0.00 | 50 | 1014.4 |
| 20260505192713 | 65 | 279 | 1.7 | 3.5 | 0.00 | 0.00 | 0.00 | 52 | 1014.6 |
| 20260505192209 | 64 | 251 | 3.5 | 4.3 | 0.00 | 0.00 | 0.00 | 52 | 1014.5 |
| 20260505191707 | 64 | 239 | 1.7 | 3.5 | 0.00 | 0.00 | 0.00 | 55 | 1014.5 |
| 20260505191205 | 64 | 266 | 3.5 | 4.3 | 0.00 | 0.00 | 0.00 | 54 | 1014.6 |
| 20260505190701 | 63 | 267 | 3.5 | 4.3 | 0.00 | 0.00 | 0.00 | 57 | 1014.7 |
| 20260505190156 | 63 | 251 | 4.3 | 5.2 | 0.00 | 0.00 | 0.00 | 56 | 1014.8 |
| 20260505185653 | 64 | 249 | 3.5 | 4.3 | 0.00 | 0.00 | 0.00 | 55 | 1014.9 |
| 20260505185149 | 63 | 32 | 0.9 | 1.7 | 0.00 | 0.00 | 0.00 | 58 | 1014.8 |
| 20260505184645 | 63 | 274 | 4.3 | 5.2 | 0.00 | 0.00 | 0.00 | 57 | 1014.8 |
| 20260505184143 | 62 | 280 | 4.3 | 6.1 | 0.00 | 0.00 | 0.00 | 57 | 1015.0 |
| 20260505183639 | 62 | 245 | 4.3 | 4.3 | 0.00 | 0.00 | 0.00 | 57 | 1014.8 |
| 20260505183137 | 62 | 250 | 1.7 | 1.7 | 0.00 | 0.00 | 0.00 | 58 | 1015.0 |
| 20260505182633 | 62 | 288 | 3.5 | 4.3 | 0.00 | 0.00 | 0.00 | 59 | 1015.0 |
| 20260505182130 | 63 | 249 | 2.6 | 4.3 | 0.00 | 0.00 | 0.00 | 58 | 1015.0 |
| 20260505181626 | 62 | 311 | 0.9 | 1.7 | 0.00 | 0.00 | 0.00 | 59 | 1015.0 |
| 20260505181124 | 62 | 278 | 4.3 | 5.2 | 0.00 | 0.00 | 0.00 | 60 | 1015.0 |
| 20260505180620 | 61 | 273 | 3.5 | 5.2 | 0.00 | 0.00 | 0.00 | 61 | 1014.9 |
| 20260505180118 | 61 | 33 | 1.7 | 3.5 | 0.00 | 0.00 | 0.00 | 61 | 1014.9 |
| 20260505175613 | 61 | 243 | 3.5 | 4.3 | 0.00 | 0.00 | 0.00 | 61 | 1014.8 |
| 20260505175110 | 61 | 247 | 2.6 | 3.5 | 0.00 | 0.00 | 0.00 | 61 | 1014.7 |
| 20260505174607 | 61 | 256 | 4.3 | 5.2 | 0.00 | 0.00 | 0.00 | 62 | 1014.6 |
| 20260505174103 | 60 | 239 | 1.7 | 1.7 | 0.00 | 0.00 | 0.00 | 62 | 1014.6 |
| 20260505173600 | 60 | 269 | 2.6 | 3.5 | 0.00 | 0.00 | 0.00 | 62 | 1014.6 |
| 20260505173056 | 59 | 329 | 0.9 | 1.7 | 0.00 | 0.00 | 0.00 | 63 | 1014.3 |
| 20260505172554 | 60 | 239 | 2.6 | 3.5 | 0.00 | 0.00 | 0.00 | 63 | 1014.4 |
| 20260505172051 | 61 | 265 | 3.5 | 5.2 | 0.00 | 0.00 | 0.00 | 63 | 1014.2 |
| 20260505171545 | 60 | 246 | 3.5 | 4.3 | 0.00 | 0.00 | 0.00 | 64 | 1014.3 |
| 20260505171043 | 59 | 259 | 1.7 | 1.7 | 0.00 | 0.00 | 0.00 | 66 | 1014.3 |
| 20260505170539 | 59 | 280 | 1.7 | 1.7 | 0.00 | 0.00 | 0.00 | 67 | 1014.5 |
| 20260505170036 | 58 | 272 | 0.0 | 0.9 | 0.00 | 0.00 | 0.00 | 68 | 1014.5 |
| 20260505165531 | 58 | 246 | 4.3 | 5.2 | 0.00 | 0.00 | 0.00 | 68 | 1014.6 |
| 20260505165027 | 58 | 253 | 1.7 | 1.7 | 0.00 | 0.00 | 0.00 | 68 | 1014.4 |
| 20260505164523 | 58 | 230 | 1.7 | 1.7 | 0.00 | 0.00 | 0.00 | 70 | 1014.3 |
| 20260505164021 | 57 | 282 | 1.7 | 1.7 | 0.00 | 0.00 | 0.00 | 71 | 1014.4 |
| 20260505163519 | 57 | 262 | 1.7 | 1.7 | 0.00 | 0.00 | 0.00 | 71 | 1014.2 |
| 20260505163016 | 56 | 271 | 4.3 | 5.2 | 0.00 | 0.00 | 0.00 | 72 | 1014.1 |
| 20260505162509 | 56 | 250 | 3.5 | 4.3 | 0.00 | 0.00 | 0.00 | 73 | 1014.2 |
| 20260505162006 | 55 | 273 | 4.3 | 5.2 | 0.00 | 0.00 | 0.00 | 73 | 1014.0 |
| 20260505161503 | 55 | 292 | 2.6 | 3.5 | 0.00 | 0.00 | 0.00 | 75 | 1014.0 |
| 20260505161000 | 55 | 19 | 0.0 | 0.0 | 0.00 | 0.00 | 0.00 | 75 | 1014.2 |
| 20260505160458 | 55 | 262 | 0.9 | 0.9 | 0.00 | 0.00 | 0.00 | 76 | 1014.3 |
| 20260505152934 | 54 | 261 | 0.0 | 0.0 | 0.00 | 0.00 | 0.00 | 78 | 1014.1 |
| 20260505152432 | 54 | 303 | 1.7 | 1.7 | 0.00 | 0.00 | 0.00 | 78 | 1014.2 |
| 20260505151931 | 54 | 357 | 0.9 | 0.9 | 0.00 | 0.00 | 0.00 | 78 | 1014.0 |
| 20260505151422 | 54 | 247 | 0.9 | 1.7 | 0.00 | 0.00 | 0.00 | 79 | 1014.0 |
| 20260505150920 | 54 | 284 | 0.9 | 1.7 | 0.00 | 0.00 | 0.00 | 79 | 1013.9 |
| 20260505150416 | 54 | 260 | 2.6 | 3.5 | 0.00 | 0.00 | 0.00 | 79 | 1013.8 |
| 20260505140346 | 53 | 263 | 1.7 | 1.7 | 0.00 | 0.00 | 0.00 | 81 | 1013.4 |
| 20260505130309 | 53 | 4 | 0.9 | 1.7 | 0.00 | 0.00 | 0.00 | 83 | 1013.1 |
| 20260505124800 | 53 | 238 | 1.7 | 1.7 | 0.00 | 0.00 | 0.00 | 83 | 1013.1 |
| 20260505124257 | 53 | 259 | 1.7 | 1.7 | 0.00 | 0.00 | 0.00 | 83 | 1013.0 |
| 20260505123752 | 53 | 266 | 0.9 | 0.9 | 0.00 | 0.00 | 0.00 | 83 | 1012.9 |
| 20260505123249 | 53 | 233 | 1.7 | 1.7 | 0.00 | 0.00 | 0.00 | 82 | 1013.1 |
| 20260505122745 | 53 | 266 | 0.9 | 1.7 | 0.00 | 0.00 | 0.00 | 82 | 1013.1 |
| 20260505122243 | 53 | 264 | 1.7 | 3.5 | 0.00 | 0.00 | 0.00 | 82 | 1013.1 |
| 20260505121739 | 53 | 270 | 0.9 | 0.9 | 0.00 | 0.00 | 0.00 | 82 | 1013.2 |
| 20260505121236 | 53 | 243 | 2.6 | 3.5 | 0.00 | 0.00 | 0.00 | 82 | 1013.0 |
| 20260505120732 | 53 | 193 | 0.9 | 1.7 | 0.00 | 0.00 | 0.00 | 82 | 1012.9 |
| 20260505120229 | 53 | 275 | 2.6 | 3.5 | 0.00 | 0.00 | 0.00 | 82 | 1012.9 |
| 20260505115727 | 53 | 242 | 2.6 | 4.3 | 0.00 | 0.00 | 0.00 | 82 | 1013.1 |
| 20260505115225 | 53 | 220 | 1.7 | 1.7 | 0.00 | 0.00 | 0.00 | 82 | 1013.0 |
| 20260505114722 | 53 | 263 | 4.3 | 7.8 | 0.00 | 0.00 | 0.00 | 82 | 1013.0 |
| 20260505114218 | 53 | 257 | 2.6 | 3.5 | 0.00 | 0.00 | 0.00 | 82 | 1012.9 |
| 20260505113715 | 54 | 263 | 0.9 | 1.7 | 0.00 | 0.00 | 0.00 | 82 | 1012.9 |
| 20260505113212 | 54 | 261 | 3.5 | 4.3 | 0.00 | 0.00 | 0.00 | 81 | 1013.0 |
| 20260505112708 | 54 | 233 | 1.7 | 1.7 | 0.00 | 0.00 | 0.00 | 81 | 1012.9 |
| 20260505112206 | 54 | 266 | 0.9 | 1.7 | 0.00 | 0.00 | 0.00 | 80 | 1012.9 |
| 20260505111705 | 54 | 255 | 3.5 | 4.3 | 0.00 | 0.00 | 0.00 | 80 | 1013.0 |
| 20260505111202 | 54 | 259 | 2.6 | 4.3 | 0.00 | 0.00 | 0.00 | 79 | 1013.0 |
| 20260505110658 | 55 | 267 | 2.6 | 4.3 | 0.00 | 0.00 | 0.00 | 79 | 1012.9 |
| 20260505110155 | 55 | 264 | 2.6 | 4.3 | 0.00 | 0.00 | 0.00 | 78 | 1012.9 |
| 20260505102131 | 56 | 263 | 2.6 | 4.3 | 0.00 | 0.00 | 0.00 | 74 | 1012.8 |
| 20260505101629 | 56 | 239 | 2.6 | 3.5 | 0.00 | 0.00 | 0.00 | 74 | 1013.0 |
| 20260505101125 | 56 | 253 | 2.6 | 3.5 | 0.00 | 0.00 | 0.00 | 74 | 1012.9 |
| 20260505100621 | 56 | 196 | 3.5 | 4.3 | 0.00 | 0.00 | 0.00 | 74 | 1012.9 |
| 20260505100119 | 56 | 277 | 2.6 | 3.5 | 0.00 | 0.00 | 0.00 | 74 | 1012.9 |
| 20260505095615 | 56 | 258 | 1.7 | 1.7 | 0.00 | 0.00 | 0.00 | 74 | 1013.0 |
| 20260505095111 | 57 | 239 | 2.6 | 3.5 | 0.00 | 0.00 | 0.00 | 74 | 1012.9 |
| 20260505094608 | 57 | 277 | 2.6 | 3.5 | 0.00 | 0.00 | 0.00 | 74 | 1012.8 |
| 20260505094104 | 57 | 238 | 2.6 | 3.5 | 0.00 | 0.00 | 0.00 | 74 | 1012.9 |
| 20260505093600 | 57 | 272 | 1.7 | 1.7 | 0.00 | 0.00 | 0.00 | 74 | 1013.0 |
| 20260505093058 | 57 | 269 | 4.3 | 5.2 | 0.00 | 0.00 | 0.00 | 74 | 1013.0 |
| 20260505092555 | 57 | 241 | 2.6 | 4.3 | 0.00 | 0.00 | 0.00 | 74 | 1013.1 |
| 20260505092054 | 57 | 264 | 2.6 | 3.5 | 0.00 | 0.00 | 0.00 | 73 | 1013.1 |
| 20260505091550 | 57 | 254 | 2.6 | 3.5 | 0.00 | 0.00 | 0.00 | 74 | 1012.9 |
| 20260505091049 | 57 | 267 | 2.6 | 3.5 | 0.00 | 0.00 | 0.00 | 74 | 1013.1 |
| 20260505090546 | 57 | 244 | 2.6 | 4.3 | 0.00 | 0.00 | 0.00 | 74 | 1013.0 |
| 20260505090044 | 57 | 239 | 1.7 | 3.5 | 0.00 | 0.00 | 0.00 | 74 | 1012.9 |
| 20260505085541 | 56 | 265 | 2.6 | 3.5 | 0.00 | 0.00 | 0.00 | 75 | 1013.0 |
| 20260505085039 | 56 | 236 | 1.7 | 1.7 | 0.00 | 0.00 | 0.00 | 75 | 1013.0 |
| 20260505084537 | 56 | 245 | 0.0 | 0.9 | 0.00 | 0.00 | 0.00 | 75 | 1012.9 |
| 20260505084035 | 56 | 260 | 2.6 | 3.5 | 0.00 | 0.00 | 0.00 | 74 | 1013.1 |
| 20260505083532 | 56 | 292 | 4.3 | 6.1 | 0.00 | 0.00 | 0.00 | 74 | 1013.0 |
| 20260505083028 | 56 | 296 | 1.7 | 1.7 | 0.00 | 0.00 | 0.00 | 74 | 1012.9 |
| 20260505082524 | 56 | 262 | 1.7 | 1.7 | 0.00 | 0.00 | 0.00 | 74 | 1012.9 |
| 20260505082021 | 56 | 265 | 3.5 | 4.3 | 0.00 | 0.00 | 0.00 | 74 | 1013.2 |
| 20260505081518 | 56 | 236 | 0.9 | 1.7 | 0.00 | 0.00 | 0.00 | 74 | 1013.0 |
| 20260505081015 | 56 | 286 | 1.7 | 1.7 | 0.00 | 0.00 | 0.00 | 73 | 1013.1 |
| 20260505080511 | 56 | 264 | 2.6 | 3.5 | 0.00 | 0.00 | 0.00 | 73 | 1013.2 |
| 20260505080008 | 56 | 295 | 1.7 | 3.5 | 0.00 | 0.00 | 0.00 | 73 | 1013.1 |
| 20260505075504 | 56 | 266 | 3.5 | 4.3 | 0.00 | 0.00 | 0.00 | 73 | 1013.3 |
| 20260505075001 | 56 | 293 | 2.6 | 3.5 | 0.00 | 0.00 | 0.00 | 73 | 1013.4 |
| 20260505074458 | 56 | 292 | 0.9 | 0.9 | 0.00 | 0.00 | 0.00 | 73 | 1013.0 |
| 20260505073955 | 56 | 250 | 2.6 | 3.5 | 0.00 | 0.00 | 0.00 | 73 | 1013.2 |
| 20260505073452 | 56 | 250 | 1.7 | 1.7 | 0.00 | 0.00 | 0.00 | 72 | 1013.1 |
| 20260505072950 | 57 | 260 | 1.7 | 1.7 | 0.00 | 0.00 | 0.00 | 71 | 1013.3 |
| 20260505072446 | 57 | 308 | 0.9 | 0.9 | 0.00 | 0.00 | 0.00 | 71 | 1013.2 |
| 20260505071942 | 57 | 285 | 0.9 | 1.7 | 0.00 | 0.00 | 0.00 | 72 | 1013.0 |
| 20260505071438 | 57 | 266 | 0.9 | 0.9 | 0.00 | 0.00 | 0.00 | 72 | 1013.1 |
| 20260505070937 | 57 | 261 | 2.6 | 3.5 | 0.00 | 0.00 | 0.00 | 72 | 1013.1 |
| 20260505070433 | 57 | 283 | 2.6 | 3.5 | 0.00 | 0.00 | 0.00 | 71 | 1013.2 |
| 20260505065929 | 57 | 274 | 0.9 | 0.9 | 0.00 | 0.00 | 0.00 | 72 | 1013.2 |
| 20260505065425 | 57 | 261 | 1.7 | 1.7 | 0.00 | 0.00 | 0.00 | 71 | 1013.0 |
| 20260505064922 | 57 | 262 | 0.9 | 0.9 | 0.00 | 0.00 | 0.00 | 71 | 1013.2 |
| 20260505064419 | 57 | 265 | 0.9 | 0.9 | 0.00 | 0.00 | 0.00 | 70 | 1013.2 |
| 20260505063918 | 57 | 272 | 0.9 | 1.7 | 0.00 | 0.00 | 0.00 | 70 | 1013.1 |
| 20260505063414 | 57 | 263 | 1.7 | 1.7 | 0.00 | 0.00 | 0.00 | 70 | 1013.0 |
| 20260505062910 | 57 | 249 | 1.7 | 1.7 | 0.00 | 0.00 | 0.00 | 69 | 1013.2 |
| 20260505062408 | 57 | 267 | 1.7 | 1.7 | 0.00 | 0.00 | 0.00 | 69 | 1013.1 |
| 20260505061904 | 57 | 251 | 1.7 | 4.3 | 0.00 | 0.00 | 0.00 | 70 | 1013.2 |
| 20260505061402 | 57 | 262 | 2.6 | 3.5 | 0.00 | 0.00 | 0.00 | 70 | 1013.2 |
| 20260505060859 | 57 | 258 | 1.7 | 1.7 | 0.00 | 0.00 | 0.00 | 71 | 1013.2 |
| 20260505060356 | 57 | 274 | 0.9 | 0.9 | 0.00 | 0.00 | 0.00 | 71 | 1013.2 |
| 20260505055852 | 57 | 254 | 1.7 | 1.7 | 0.00 | 0.00 | 0.00 | 71 | 1013.4 |
| 20260505055348 | 58 | 281 | 1.7 | 1.7 | 0.00 | 0.00 | 0.00 | 73 | 1013.3 |
| 20260505054846 | 58 | 13 | 0.0 | 0.0 | 0.00 | 0.00 | 0.00 | 73 | 1013.1 |
| 20260505054343 | 58 | 264 | 0.0 | 0.0 | 0.00 | 0.00 | 0.00 | 73 | 1013.3 |
| 20260505053841 | 58 | 330 | 0.0 | 0.0 | 0.00 | 0.00 | 0.00 | 73 | 1013.5 |
| 20260505053338 | 58 | 267 | 0.9 | 0.9 | 0.00 | 0.00 | 0.00 | 72 | 1013.2 |
| 20260505052834 | 58 | 252 | 1.7 | 1.7 | 0.00 | 0.00 | 0.00 | 72 | 1013.2 |
| 20260505052331 | 59 | 242 | 0.9 | 0.9 | 0.00 | 0.00 | 0.00 | 72 | 1013.5 |
| 20260505051829 | 59 | 258 | 0.9 | 0.9 | 0.00 | 0.00 | 0.00 | 69 | 1013.4 |
| 20260505051326 | 59 | 267 | 0.9 | 1.7 | 0.00 | 0.00 | 0.00 | 69 | 1013.4 |
| 20260505050824 | 59 | 281 | 0.9 | 0.9 | 0.00 | 0.00 | 0.00 | 69 | 1013.2 |
| 20260505050322 | 59 | 270 | 0.9 | 0.9 | 0.00 | 0.00 | 0.00 | 68 | 1013.4 |
| 20260505041752 | 59 | 277 | 0.9 | 0.9 | 0.00 | 0.00 | 0.00 | 66 | 1013.3 |
| 20260505041249 | 59 | 275 | 0.9 | 0.9 | 0.00 | 0.00 | 0.00 | 66 | 1013.2 |
| 20260505040747 | 59 | 282 | 0.9 | 0.9 | 0.00 | 0.00 | 0.00 | 67 | 1013.1 |
| 20260505040244 | 59 | 248 | 0.9 | 0.9 | 0.00 | 0.00 | 0.00 | 67 | 1013.0 |
| 20260505035741 | 59 | 266 | 0.9 | 0.9 | 0.00 | 0.00 | 0.00 | 67 | 1013.1 |
| 20260505035236 | 59 | 264 | 0.0 | 0.0 | 0.00 | 0.00 | 0.00 | 67 | 1013.2 |
| 20260505034733 | 59 | 264 | 0.0 | 0.0 | 0.00 | 0.00 | 0.00 | 67 | 1012.9 |
| 20260505034230 | 59 | 263 | 0.9 | 0.9 | 0.00 | 0.00 | 0.00 | 67 | 1013.0 |
| 20260505033727 | 59 | 270 | 0.9 | 0.9 | 0.00 | 0.00 | 0.00 | 67 | 1013.0 |
| 20260505033225 | 59 | 291 | 0.9 | 0.9 | 0.00 | 0.00 | 0.00 | 67 | 1012.8 |
| 20260505032723 | 59 | 277 | 1.7 | 1.7 | 0.00 | 0.00 | 0.00 | 68 | 1012.9 |
| 20260505032218 | 59 | 349 | 0.0 | 0.0 | 0.00 | 0.00 | 0.00 | 68 | 1012.6 |
| 20260505031716 | 59 | 0 | 0.0 | 0.0 | 0.00 | 0.00 | 0.00 | 67 | 1012.9 |
| 20260505031212 | 59 | 331 | 0.0 | 0.0 | 0.00 | 0.00 | 0.00 | 67 | 1012.9 |
| 20260505030709 | 59 | 335 | 0.0 | 0.0 | 0.00 | 0.00 | 0.00 | 67 | 1012.9 |
| 20260505030205 | 59 | 255 | 0.9 | 1.7 | 0.00 | 0.00 | 0.00 | 66 | 1012.8 |
| 20260505025701 | 59 | 263 | 0.0 | 0.0 | 0.00 | 0.00 | 0.00 | 65 | 1012.8 |
| 20260505025159 | 59 | 282 | 1.7 | 1.7 | 0.00 | 0.00 | 0.00 | 65 | 1012.8 |
| 20260505024657 | 59 | 271 | 0.9 | 0.9 | 0.00 | 0.00 | 0.00 | 65 | 1012.7 |
| 20260505024154 | 59 | 279 | 1.7 | 1.7 | 0.00 | 0.00 | 0.00 | 64 | 1012.7 |
| 20260505023651 | 59 | 258 | 0.0 | 0.9 | 0.00 | 0.00 | 0.00 | 65 | 1012.7 |
| 20260505023149 | 59 | 287 | 0.9 | 0.9 | 0.00 | 0.00 | 0.00 | 65 | 1012.6 |
| 20260505022646 | 59 | 327 | 0.0 | 0.0 | 0.00 | 0.00 | 0.00 | 64 | 1012.6 |
| 20260505022143 | 60 | 335 | 0.0 | 0.0 | 0.00 | 0.00 | 0.00 | 64 | 1012.9 |
| 20260505021639 | 60 | 281 | 0.9 | 0.9 | 0.00 | 0.00 | 0.00 | 63 | 1012.6 |
| 20260505021136 | 60 | 1 | 0.0 | 0.0 | 0.00 | 0.00 | 0.00 | 63 | 1012.8 |
| 20260505020632 | 60 | 2 | 0.0 | 0.0 | 0.00 | 0.00 | 0.00 | 62 | 1012.5 |
| 20260505020128 | 60 | 3 | 0.0 | 0.0 | 0.00 | 0.00 | 0.00 | 61 | 1012.8 |
| 20260505015626 | 60 | 38 | 0.0 | 0.0 | 0.00 | 0.00 | 0.00 | 63 | 1012.8 |
| 20260505015122 | 60 | 39 | 0.0 | 0.0 | 0.00 | 0.00 | 0.00 | 63 | 1012.9 |
| 20260505014619 | 60 | 37 | 0.9 | 0.9 | 0.00 | 0.00 | 0.00 | 62 | 1012.6 |
| 20260505014116 | 60 | 38 | 0.0 | 0.0 | 0.00 | 0.00 | 0.00 | 62 | 1012.8 |
| 20260505013613 | 60 | 52 | 0.0 | 0.0 | 0.00 | 0.00 | 0.00 | 62 | 1013.1 |
| 20260505013110 | 61 | 34 | 0.9 | 0.9 | 0.00 | 0.00 | 0.00 | 60 | 1013.1 |
| 20260505012609 | 61 | 25 | 0.0 | 0.0 | 0.00 | 0.00 | 0.00 | 60 | 1012.9 |
| 20260505012105 | 61 | 9 | 0.0 | 0.0 | 0.00 | 0.00 | 0.00 | 59 | 1013.1 |
| 20260505011600 | 61 | 28 | 0.0 | 0.0 | 0.00 | 0.00 | 0.00 | 59 | 1013.0 |
| 20260505011058 | 61 | 29 | 0.9 | 1.7 | 0.00 | 0.00 | 0.00 | 59 | 1012.8 |
| 20260505010553 | 61 | 40 | 0.0 | 0.0 | 0.00 | 0.00 | 0.00 | 58 | 1013.0 |
| 20260505010050 | 61 | 19 | 0.0 | 0.9 | 0.00 | 0.00 | 0.00 | 59 | 1013.0 |